QPF
0.04 0.04 0.03 0.03 0.04 0.04 0.04 0.02 0.01 0.01 0.02 0.02 0.02 0.02 0.02 0.02 0.01 0.01 0.01 0.01 0.01 0.02 0.02 0.02 0.02 0.01 0.01 0.00 0.00 0.00 0.00 0.00 0.00 0.00 0.00 0.00 0.00 0.00 0.00 0.00 0.00 0.00 0.00
0.08 0.05 0.04 0.04 0.04 0.03 0.02 0.02 0.02 0.01 0.01 0.02 0.02 0.02 0.02 0.03 0.01 0.01 0.01 0.01 0.00 0.01 0.01 0.01 0.01 0.01 0.00 0.00 0.00 0.01 0.01 0.01 0.00 0.00 0.00 0.00 0.00 0.00 0.00 0.00 0.00 0.00 0.00
0.08 0.10 0.07 0.04 0.03 0.02 0.02 0.03 0.03 0.02 0.01 0.02 0.03 0.03 0.02 0.02 0.02 0.01 0.00 0.00 0.01 0.02 0.01 0.01 0.01 0.01 0.00 0.00 0.00 0.01 0.01 0.02 0.02 0.02 0.02 0.01 0.00 0.00 0.00 0.00 0.00 0.00 0.00
0.06 0.09 0.08 0.05 0.03 0.02 0.03 0.02 0.03 0.02 0.02 0.02 0.03 0.02 0.01 0.01 0.01 0.01 0.01 0.01 0.01 0.02 0.02 0.01 0.00 0.01 0.00 0.00 0.01 0.01 0.01 0.01 0.01 0.01 0.01 0.01 0.01 0.00 0.00 0.00 0.00 0.00 0.00
0.04 0.05 0.06 0.06 0.04 0.02 0.03 0.03 0.03 0.03 0.03 0.02 0.02 0.02 0.01 0.01 0.01 0.01 0.01 0.02 0.02 0.02 0.03 0.02 0.01 0.00 0.00 0.00 0.01 0.01 0.01 0.00 0.01 0.01 0.00 0.00 0.00 0.00 0.00 0.00 0.00 0.00 0.00
0.03 0.03 0.04 0.05 0.03 0.03 0.03 0.03 0.04 0.04 0.04 0.03 0.02 0.02 0.02 0.02 0.02 0.01 0.02 0.02 0.01 0.02 0.02 0.02 0.01 0.01 0.00 0.01 0.01 0.01 0.01 0.01 0.01 0.00 0.00 0.00 0.00 0.00 0.00 0.00 0.00 0.01 0.01
0.02 0.02 0.03 0.05 0.03 0.03 0.04 0.03 0.02 0.03 0.04 0.04 0.02 0.02 0.02 0.03 0.02 0.01 0.02 0.02 0.01 0.02 0.02 0.01 0.00 0.00 0.00 0.00 0.01 0.01 0.01 0.00 0.00 0.00 0.00 0.00 0.00 0.00 0.00 0.00 0.00 0.01 0.01
0.02 0.02 0.02 0.03 0.03 0.03 0.05 0.04 0.03 0.03 0.04 0.03 0.02 0.02 0.02 0.02 0.01 0.01 0.01 0.01 0.01 0.01 0.01 0.01 0.01 0.00 0.00 0.00 0.00 0.00 0.00 0.00 0.00 0.00 0.00 0.00 0.00 0.00 0.00 0.00 0.00 0.00 0.01
0.03 0.03 0.02 0.02 0.02 0.02 0.02 0.03 0.03 0.04 0.04 0.03 0.02 0.02 0.01 0.01 0.01 0.01 0.01 0.01 0.02 0.02 0.01 0.01 0.01 0.01 0.00 0.00 0.00 0.00 0.00 0.00 0.00 0.00 0.00 0.00 0.00 0.00 0.00 0.00 0.00 0.00 0.00
0.03 0.03 0.02 0.02 0.01 0.02 0.02 0.02 0.03 0.04 0.03 0.03 0.03 0.02 0.02 0.01 0.01 0.01 0.00 0.01 0.01 0.01 0.01 0.02 0.02 0.01 0.00 0.00 0.00 0.00 0.00 0.00 0.00 0.00 0.00 0.00 0.00 0.00 0.00 0.01 0.00 0.00 0.00
0.03 0.04 0.04 0.03 0.02 0.02 0.02 0.02 0.02 0.03 0.03 0.03 0.02 0.02 0.02 0.01 0.01 0.01 0.01 0.01 0.02 0.01 0.02 0.02 0.02 0.01 0.01 0.01 0.00 0.00 0.00 0.00 0.00 0.00 0.00 0.00 0.00 0.00 0.00 0.00 0.01 0.01 0.02
0.03 0.04 0.05 0.04 0.04 0.03 0.02 0.02 0.03 0.02 0.02 0.02 0.02 0.01 0.01 0.01 0.01 0.01 0.01 0.01 0.01 0.02 0.02 0.02 0.02 0.02 0.01 0.01 0.01 0.01 0.01 0.01 0.00 0.00 0.00 0.00 0.00 0.00 0.01 0.01 0.01 0.01 0.02
0.04 0.05 0.04 0.04 0.05 0.04 0.03 0.03 0.02 0.02 0.01 0.02 0.02 0.02 0.01 0.01 0.01 0.01 0.01 0.01 0.01 0.01 0.02 0.02 0.02 0.02 0.02 0.02 0.02 0.02 0.02 0.02 0.01 0.01 0.00 0.00 0.00 0.00 0.00 0.01 0.01 0.01 0.01
0.04 0.05 0.04 0.03 0.03 0.03 0.03 0.04 0.03 0.02 0.01 0.02 0.02 0.01 0.01 0.01 0.01 0.01 0.01 0.01 0.01 0.01 0.02 0.02 0.02 0.01 0.01 0.01 0.01 0.01 0.02 0.02 0.02 0.02 0.01 0.01 0.00 0.00 0.00 0.00 0.00 0.00 0.01
0.04 0.04 0.04 0.03 0.02 0.02 0.03 0.03 0.03 0.03 0.02 0.02 0.02 0.01 0.01 0.01 0.01 0.01 0.01 0.01 0.01 0.01 0.01 0.01 0.01 0.01 0.01 0.01 0.01 0.01 0.01 0.01 0.01 0.01 0.01 0.01 0.01 0.01 0.01 0.00 0.00 0.00 0.00
0.04 0.04 0.04 0.05 0.04 0.03 0.03 0.04 0.05 0.05 0.06 0.04 0.03 0.02 0.02 0.02 0.01 0.01 0.01 0.01 0.01 0.01 0.01 0.01 0.01 0.01 0.01 0.01 0.01 0.00 0.00 0.01 0.01 0.01 0.01 0.01 0.01 0.01 0.01 0.01 0.01 0.01 0.01
0.03 0.02 0.03 0.04 0.03 0.02 0.02 0.03 0.04 0.04 0.04 0.04 0.03 0.03 0.02 0.02 0.01 0.01 0.02 0.02 0.02 0.02 0.01 0.01 0.01 0.02 0.01 0.01 0.01 0.01 0.01 0.01 0.01 0.01 0.01 0.01 0.01 0.02 0.02 0.02 0.03 0.02 0.02
0.02 0.02 0.02 0.03 0.03 0.03 0.03 0.02 0.02 0.02 0.03 0.02 0.02 0.02 0.01 0.01 0.01 0.01 0.02 0.02 0.02 0.02 0.02 0.02 0.02 0.02 0.02 0.01 0.01 0.01 0.02 0.02 0.02 0.02 0.02 0.02 0.02 0.02 0.03 0.03 0.03 0.02 0.02
0.03 0.02 0.02 0.03 0.03 0.03 0.03 0.02 0.02 0.02 0.03 0.03 0.02 0.01 0.01 0.02 0.02 0.02 0.01 0.01 0.02 0.02 0.02 0.02 0.02 0.02 0.02 0.02 0.02 0.02 0.02 0.02 0.02 0.03 0.02 0.02 0.02 0.02 0.03 0.02 0.03 0.03 0.03
0.03 0.02 0.02 0.02 0.03 0.03 0.02 0.02 0.02 0.03 0.03 0.04 0.03 0.02 0.01 0.01 0.01 0.01 0.02 0.02 0.02 0.02 0.02 0.01 0.01 0.01 0.02 0.02 0.01 0.01 0.01 0.01 0.01 0.01 0.02 0.02 0.02 0.02 0.02 0.03 0.04 0.04 0.04
0.03 0.03 0.03 0.03 0.03 0.02 0.02 0.02 0.03 0.03 0.03 0.04 0.04 0.04 0.02 0.01 0.01 0.02 0.02 0.02 0.02 0.01 0.01 0.01 0.02 0.02 0.02 0.02 0.01 0.01 0.01 0.00 0.01 0.01 0.01 0.01 0.02 0.03 0.03 0.03 0.03 0.03 0.03
0.03 0.02 0.03 0.03 0.03 0.02 0.03 0.03 0.03 0.02 0.02 0.03 0.04 0.04 0.03 0.01 0.01 0.02 0.02 0.01 0.01 0.01 0.01 0.01 0.01 0.02 0.01 0.01 0.01 0.01 0.01 0.01 0.02 0.02 0.02 0.02 0.03 0.03 0.03 0.03 0.03 0.02 0.02
0.03 0.03 0.03 0.04 0.03 0.03 0.03 0.03 0.02 0.02 0.02 0.02 0.03 0.03 0.02 0.01 0.01 0.01 0.01 0.01 0.01 0.01 0.01 0.01 0.01 0.02 0.02 0.01 0.01 0.01 0.01 0.02 0.02 0.02 0.02 0.02 0.01 0.01 0.01 0.02 0.02 0.02 0.02
0.03 0.03 0.03 0.03 0.03 0.03 0.03 0.03 0.02 0.02 0.01 0.02 0.02 0.02 0.02 0.01 0.01 0.01 0.01 0.01 0.01 0.01 0.01 0.01 0.01 0.02 0.02 0.02 0.01 0.01 0.01 0.02 0.02 0.01 0.01 0.01 0.01 0.01 0.01 0.01 0.01 0.01 0.02
0.03 0.03 0.03 0.03 0.03 0.03 0.04 0.04 0.04 0.03 0.03 0.02 0.02 0.02 0.02 0.01 0.01 0.01 0.01 0.01 0.02 0.01 0.02 0.02 0.02 0.02 0.02 0.02 0.02 0.01 0.01 0.01 0.01 0.01 0.01 0.01 0.01 0.01 0.01 0.01 0.01 0.01 0.02
0.04 0.04 0.03 0.03 0.02 0.03 0.04 0.04 0.05 0.04 0.03 0.02 0.03 0.03 0.04 0.03 0.02 0.02 0.01 0.02 0.02 0.02 0.02 0.01 0.01 0.01 0.02 0.02 0.02 0.02 0.01 0.01 0.00 0.00 0.00 0.00 0.00 0.01 0.01 0.01 0.01 0.01 0.01
MSLP
1017.61 1017.63 1017.71 1017.83 1017.93 1018.00 1018.03 1018.02 1017.98 1017.93 1017.89 1017.88 1017.89 1017.93 1017.97 1018.02 1018.04 1018.05 1018.03 1018.01 1017.99 1017.99 1018.02 1018.10 1018.23 1018.42 1018.65 1018.95 1019.29 1019.69 1020.13 1020.62 1021.13 1021.65 1022.15 1022.61 1022.99 1023.28 1023.47 1023.55 1023.55 1023.46 1023.33
1017.82 1017.82 1017.87 1017.96 1018.04 1018.10 1018.13 1018.13 1018.10 1018.07 1018.06 1018.06 1018.09 1018.14 1018.21 1018.27 1018.32 1018.36 1018.37 1018.37 1018.36 1018.35 1018.35 1018.38 1018.44 1018.55 1018.71 1018.92 1019.20 1019.55 1019.97 1020.45 1020.97 1021.52 1022.06 1022.57 1023.01 1023.36 1023.61 1023.75 1023.80 1023.78 1023.69
1018.07 1018.08 1018.12 1018.19 1018.25 1018.30 1018.32 1018.32 1018.31 1018.29 1018.28 1018.30 1018.34 1018.41 1018.49 1018.58 1018.66 1018.73 1018.77 1018.80 1018.80 1018.79 1018.78 1018.77 1018.78 1018.81 1018.90 1019.04 1019.25 1019.53 1019.90 1020.34 1020.84 1021.37 1021.91 1022.43 1022.89 1023.27 1023.55 1023.75 1023.86 1023.89 1023.87
1018.36 1018.38 1018.43 1018.49 1018.54 1018.58 1018.60 1018.59 1018.58 1018.57 1018.57 1018.59 1018.63 1018.71 1018.80 1018.90 1019.00 1019.10 1019.17 1019.21 1019.23 1019.23 1019.21 1019.18 1019.15 1019.14 1019.16 1019.24 1019.38 1019.59 1019.89 1020.27 1020.71 1021.19 1021.69 1022.17 1022.61 1022.99 1023.30 1023.53 1023.69 1023.79 1023.85
1018.61 1018.66 1018.72 1018.79 1018.84 1018.88 1018.90 1018.90 1018.89 1018.88 1018.88 1018.90 1018.94 1019.01 1019.10 1019.20 1019.30 1019.40 1019.49 1019.55 1019.58 1019.59 1019.57 1019.53 1019.48 1019.44 1019.42 1019.44 1019.52 1019.67 1019.89 1020.19 1020.55 1020.95 1021.38 1021.80 1022.20 1022.55 1022.86 1023.11 1023.32 1023.49 1023.63
1018.78 1018.85 1018.94 1019.02 1019.09 1019.14 1019.17 1019.18 1019.18 1019.18 1019.18 1019.20 1019.23 1019.28 1019.35 1019.43 1019.51 1019.60 1019.67 1019.73 1019.77 1019.78 1019.77 1019.73 1019.68 1019.63 1019.59 1019.58 1019.61 1019.70 1019.85 1020.07 1020.34 1020.65 1020.99 1021.33 1021.66 1021.98 1022.26 1022.53 1022.77 1023.00 1023.22
1018.81 1018.91 1019.01 1019.11 1019.19 1019.27 1019.33 1019.37 1019.39 1019.41 1019.42 1019.44 1019.45 1019.48 1019.51 1019.55 1019.60 1019.65 1019.70 1019.75 1019.78 1019.79 1019.78 1019.76 1019.72 1019.67 1019.63 1019.61 1019.61 1019.66 1019.75 1019.90 1020.08 1020.30 1020.54 1020.79 1021.05 1021.31 1021.57 1021.83 1022.09 1022.36 1022.64
1018.71 1018.80 1018.91 1019.02 1019.14 1019.24 1019.34 1019.43 1019.49 1019.55 1019.58 1019.59 1019.60 1019.59 1019.59 1019.58 1019.58 1019.58 1019.59 1019.60 1019.61 1019.61 1019.61 1019.60 1019.58 1019.56 1019.53 1019.51 1019.51 1019.53 1019.58 1019.66 1019.77 1019.91 1020.06 1020.23 1020.41 1020.61 1020.82 1021.05 1021.32 1021.61 1021.94
1018.49 1018.56 1018.67 1018.79 1018.93 1019.08 1019.23 1019.36 1019.48 1019.58 1019.64 1019.67 1019.67 1019.64 1019.59 1019.53 1019.47 1019.41 1019.37 1019.34 1019.33 1019.32 1019.32 1019.33 1019.33 1019.32 1019.32 1019.31 1019.31 1019.32 1019.35 1019.38 1019.43 1019.49 1019.57 1019.66 1019.76 1019.89 1020.06 1020.26 1020.50 1020.79 1021.14
1018.23 1018.27 1018.35 1018.48 1018.64 1018.83 1019.03 1019.23 1019.41 1019.55 1019.65 1019.70 1019.70 1019.65 1019.56 1019.45 1019.33 1019.22 1019.13 1019.06 1019.01 1018.99 1018.99 1018.99 1019.01 1019.03 1019.04 1019.05 1019.05 1019.05 1019.05 1019.05 1019.05 1019.05 1019.06 1019.08 1019.12 1019.19 1019.29 1019.45 1019.66 1019.93 1020.26
1018.02 1018.02 1018.07 1018.19 1018.37 1018.59 1018.84 1019.09 1019.32 1019.52 1019.65 1019.72 1019.72 1019.65 1019.53 1019.38 1019.22 1019.06 1018.92 1018.81 1018.73 1018.69 1018.68 1018.68 1018.70 1018.72 1018.74 1018.75 1018.74 1018.73 1018.70 1018.67 1018.62 1018.58 1018.53 1018.50 1018.47 1018.48 1018.53 1018.63 1018.79 1019.02 1019.32
1017.96 1017.91 1017.94 1018.04 1018.23 1018.47 1018.75 1019.04 1019.31 1019.54 1019.70 1019.78 1019.77 1019.69 1019.55 1019.37 1019.16 1018.97 1018.79 1018.65 1018.54 1018.48 1018.45 1018.44 1018.45 1018.45 1018.45 1018.44 1018.41 1018.36 1018.30 1018.22 1018.14 1018.05 1017.95 1017.87 1017.79 1017.75 1017.75 1017.79 1017.91 1018.08 1018.34
1018.12 1018.03 1018.02 1018.11 1018.29 1018.54 1018.83 1019.14 1019.42 1019.66 1019.83 1019.90 1019.89 1019.79 1019.63 1019.42 1019.19 1018.97 1018.76 1018.60 1018.47 1018.39 1018.33 1018.29 1018.27 1018.23 1018.19 1018.13 1018.05 1017.95 1017.84 1017.71 1017.58 1017.44 1017.30 1017.17 1017.06 1016.97 1016.93 1016.93 1016.98 1017.11 1017.30
1018.52 1018.40 1018.37 1018.44 1018.61 1018.85 1019.13 1019.43 1019.70 1019.92 1020.07 1020.12 1020.09 1019.97 1019.78 1019.55 1019.31 1019.07 1018.85 1018.67 1018.52 1018.41 1018.32 1018.24 1018.16 1018.07 1017.97 1017.84 1017.69 1017.52 1017.34 1017.15 1016.96 1016.77 1016.59 1016.42 1016.27 1016.15 1016.06 1016.01 1016.02 1016.09 1016.23
1019.15 1019.02 1018.98 1019.04 1019.18 1019.40 1019.65 1019.91 1020.15 1020.33 1020.43 1020.44 1020.37 1020.22 1020.01 1019.76 1019.50 1019.25 1019.03 1018.83 1018.67 1018.53 1018.40 1018.27 1018.13 1017.97 1017.78 1017.57 1017.33 1017.07 1016.81 1016.55 1016.30 1016.06 1015.83 1015.63 1015.44 1015.29 1015.16 1015.07 1015.03 1015.04 1015.11
1019.96 1019.83 1019.79 1019.84 1019.96 1020.15 1020.36 1020.56 1020.74 1020.86 1020.90 1020.86 1020.74 1020.55 1020.31 1020.04 1019.78 1019.52 1019.29 1019.09 1018.91 1018.74 1018.57 1018.39 1018.18 1017.93 1017.65 1017.34 1017.01 1016.66 1016.32 1015.98 1015.66 1015.37 1015.10 1014.85 1014.63 1014.44 1014.27 1014.13 1014.03 1013.98 1013.97
1020.85 1020.75 1020.71 1020.76 1020.87 1021.02 1021.18 1021.33 1021.44 1021.48 1021.46 1021.36 1021.18 1020.95 1020.69 1020.41 1020.13 1019.87 1019.64 1019.42 1019.23 1019.03 1018.81 1018.57 1018.29 1017.97 1017.60 1017.20 1016.78 1016.34 1015.91 1015.51 1015.13 1014.77 1014.46 1014.17 1013.90 1013.66 1013.44 1013.24 1013.06 1012.93 1012.83
1021.75 1021.68 1021.67 1021.72 1021.82 1021.93 1022.05 1022.15 1022.19 1022.18 1022.09 1021.93 1021.71 1021.44 1021.15 1020.86 1020.58 1020.31 1020.07 1019.85 1019.63 1019.40 1019.14 1018.84 1018.50 1018.10 1017.65 1017.17 1016.67 1016.16 1015.66 1015.19 1014.76 1014.35 1013.99 1013.64 1013.32 1013.02 1012.72 1012.44 1012.18 1011.94 1011.73
1022.60 1022.57 1022.59 1022.65 1022.74 1022.84 1022.93 1022.98 1022.98 1022.91 1022.77 1022.56 1022.31 1022.02 1021.71 1021.41 1021.12 1020.85 1020.60 1020.36 1020.11 1019.85 1019.55 1019.20 1018.79 1018.33 1017.82 1017.27 1016.71 1016.14 1015.60 1015.08 1014.59 1014.15 1013.73 1013.33 1012.95 1012.56 1012.18 1011.79 1011.41 1011.05 1010.72
1023.38 1023.39 1023.43 1023.51 1023.61 1023.71 1023.77 1023.80 1023.76 1023.66 1023.49 1023.26 1022.98 1022.68 1022.37 1022.06 1021.76 1021.48 1021.22 1020.95 1020.68 1020.37 1020.02 1019.62 1019.16 1018.64 1018.08 1017.49 1016.88 1016.28 1015.70 1015.15 1014.63 1014.15 1013.68 1013.23 1012.77 1012.30 1011.82 1011.31 1010.80 1010.30 1009.82
1024.07 1024.12 1024.20 1024.30 1024.41 1024.51 1024.57 1024.59 1024.54 1024.42 1024.23 1024.00 1023.71 1023.41 1023.09 1022.78 1022.47 1022.18 1021.89 1021.60 1021.28 1020.93 1020.52 1020.07 1019.55 1018.99 1018.39 1017.76 1017.13 1016.51 1015.91 1015.35 1014.82 1014.31 1013.80 1013.30 1012.77 1012.22 1011.63 1011.01 1010.36 1009.71 1009.09
1024.71 1024.79 1024.91 1025.03 1025.16 1025.27 1025.33 1025.35 1025.29 1025.17 1024.99 1024.75 1024.47 1024.17 1023.85 1023.54 1023.22 1022.90 1022.58 1022.24 1021.87 1021.46 1020.99 1020.48 1019.91 1019.30 1018.66 1018.00 1017.36 1016.73 1016.14 1015.57 1015.03 1014.51 1013.99 1013.45 1012.87 1012.24 1011.56 1010.83 1010.07 1009.29 1008.52
1025.32 1025.44 1025.58 1025.73 1025.87 1025.99 1026.06 1026.08 1026.03 1025.91 1025.73 1025.50 1025.22 1024.92 1024.60 1024.27 1023.92 1023.57 1023.21 1022.81 1022.37 1021.89 1021.35 1020.77 1020.14 1019.47 1018.79 1018.11 1017.45 1016.82 1016.23 1015.67 1015.15 1014.63 1014.10 1013.54 1012.94 1012.27 1011.53 1010.72 1009.86 1008.98 1008.11
1025.94 1026.08 1026.25 1026.41 1026.57 1026.69 1026.76 1026.78 1026.72 1026.60 1026.42 1026.19 1025.91 1025.59 1025.26 1024.91 1024.53 1024.13 1023.71 1023.24 1022.73 1022.16 1021.54 1020.87 1020.16 1019.44 1018.71 1017.99 1017.31 1016.67 1016.08 1015.54 1015.03 1014.52 1014.01 1013.46 1012.86 1012.18 1011.41 1010.57 1009.67 1008.73 1007.78
1026.56 1026.73 1026.91 1027.09 1027.25 1027.37 1027.43 1027.43 1027.36 1027.23 1027.03 1026.78 1026.49 1026.16 1025.79 1025.40 1024.99 1024.53 1024.04 1023.49 1022.89 1022.23 1021.51 1020.75 1019.95 1019.15 1018.35 1017.59 1016.87 1016.22 1015.62 1015.08 1014.58 1014.11 1013.62 1013.10 1012.53 1011.87 1011.13 1010.30 1009.39 1008.44 1007.46
1027.17 1027.37 1027.57 1027.75 1027.90 1028.00 1028.05 1028.02 1027.93 1027.77 1027.54 1027.26 1026.93 1026.57 1026.17 1025.74 1025.26 1024.75 1024.18 1023.55 1022.85 1022.09 1021.27 1020.40 1019.51 1018.62 1017.74 1016.91 1016.14 1015.44 1014.82 1014.28 1013.79 1013.33 1012.88 1012.40 1011.88 1011.28 1010.59 1009.81 1008.95 1008.03 1007.08
Thickness
5706 5704 5702 5700 5698 5696 5694 5692 5692 5691 5690 5689 5688 5687 5686 5684 5684 5682 5681 5680 5679 5678 5677 5676 5675 5674 5673 5672 5670 5668 5665 5661 5654 5650 5650 5649 5647 5646 5644 5642 5641 5639 5638
5704 5702 5700 5698 5696 5694 5692 5691 5691 5690 5689 5688 5688 5686 5685 5683 5682 5681 5679 5678 5677 5675 5675 5674 5673 5672 5670 5669 5667 5665 5662 5660 5656 5650 5647 5646 5644 5643 5641 5639 5637 5635 5633
5702 5700 5697 5695 5694 5692 5691 5690 5689 5689 5688 5687 5686 5685 5683 5682 5681 5679 5678 5677 5675 5674 5673 5672 5671 5670 5667 5666 5664 5662 5660 5659 5655 5650 5645 5643 5641 5640 5637 5635 5633 5631 5629
5700 5698 5695 5694 5693 5691 5690 5689 5687 5687 5685 5684 5684 5683 5682 5681 5679 5678 5676 5674 5673 5672 5671 5671 5669 5668 5666 5664 5662 5660 5658 5654 5651 5647 5643 5640 5638 5636 5634 5631 5628 5626 5625
5697 5694 5693 5693 5692 5690 5689 5687 5686 5684 5684 5683 5682 5681 5680 5679 5678 5676 5674 5672 5670 5669 5669 5668 5668 5668 5666 5665 5662 5659 5656 5652 5647 5644 5640 5637 5635 5632 5630 5628 5625 5622 5620
5694 5692 5692 5691 5689 5688 5686 5685 5683 5682 5681 5680 5679 5678 5677 5677 5676 5675 5673 5671 5668 5667 5665 5665 5665 5665 5664 5663 5661 5659 5656 5652 5646 5642 5637 5635 5633 5631 5629 5626 5622 5618 5615
5691 5690 5689 5688 5686 5685 5684 5682 5680 5678 5677 5676 5675 5675 5674 5673 5673 5672 5671 5669 5666 5665 5663 5662 5662 5661 5660 5658 5657 5655 5653 5651 5649 5644 5638 5635 5633 5631 5628 5624 5620 5617 5613
5688 5687 5687 5685 5684 5682 5680 5678 5677 5675 5674 5673 5672 5672 5671 5671 5671 5670 5668 5666 5664 5662 5661 5660 5659 5657 5656 5655 5652 5649 5647 5646 5645 5642 5640 5637 5635 5632 5629 5625 5620 5614 5611
5684 5685 5684 5683 5681 5679 5677 5676 5674 5672 5671 5670 5670 5669 5668 5667 5667 5666 5665 5662 5659 5658 5658 5657 5656 5655 5654 5652 5649 5645 5642 5641 5640 5639 5637 5635 5633 5630 5626 5621 5615 5610 5605
5682 5683 5683 5682 5680 5678 5676 5674 5672 5670 5669 5668 5666 5665 5665 5664 5664 5663 5662 5659 5655 5654 5653 5653 5653 5652 5651 5649 5645 5642 5638 5636 5635 5633 5631 5629 5627 5625 5622 5619 5615 5608 5602
5681 5680 5679 5678 5677 5676 5674 5672 5670 5668 5665 5664 5662 5662 5661 5661 5660 5660 5659 5656 5654 5651 5650 5648 5648 5648 5647 5645 5643 5640 5637 5634 5631 5628 5625 5623 5621 5619 5617 5614 5611 5608 5601
5677 5676 5675 5674 5674 5673 5670 5668 5666 5664 5661 5659 5658 5656 5656 5656 5656 5656 5655 5654 5652 5649 5647 5645 5645 5644 5643 5641 5638 5636 5633 5630 5625 5622 5619 5616 5614 5612 5611 5609 5606 5603 5600
5672 5671 5671 5670 5670 5669 5667 5664 5662 5660 5657 5656 5654 5652 5651 5651 5652 5652 5651 5650 5648 5646 5644 5643 5641 5639 5637 5636 5634 5631 5628 5624 5620 5616 5614 5612 5610 5608 5606 5603 5600 5597 5594
5667 5666 5666 5665 5665 5664 5663 5661 5659 5657 5654 5653 5651 5649 5648 5647 5647 5646 5645 5644 5643 5641 5639 5637 5635 5633 5631 5629 5627 5625 5623 5620 5616 5613 5610 5607 5605 5602 5599 5597 5593 5590 5585
5661 5661 5660 5660 5660 5659 5658 5657 5657 5656 5656 5653 5651 5650 5647 5645 5646 5645 5642 5640 5638 5636 5632 5629 5626 5624 5622 5620 5619 5618 5616 5614 5610 5608 5605 5602 5599 5596 5593 5591 5587 5583 5579
5656 5656 5655 5655 5655 5654 5652 5651 5651 5651 5652 5651 5650 5649 5647 5647 5644 5641 5639 5637 5634 5631 5627 5623 5621 5619 5617 5615 5613 5611 5610 5608 5606 5604 5600 5598 5595 5592 5588 5585 5581 5577 5573
5653 5652 5651 5651 5650 5649 5648 5646 5644 5644 5645 5645 5645 5644 5644 5642 5640 5638 5635 5632 5628 5625 5621 5619 5617 5615 5613 5611 5609 5607 5605 5603 5601 5598 5596 5593 5590 5587 5583 5579 5575 5571 5567
5649 5649 5648 5647 5647 5646 5644 5643 5642 5640 5638 5638 5639 5639 5638 5637 5635 5633 5630 5625 5620 5619 5617 5615 5613 5611 5608 5606 5604 5602 5599 5597 5595 5593 5590 5587 5584 5581 5577 5573 5570 5565 5561
5643 5643 5644 5643 5643 5642 5641 5639 5637 5637 5635 5634 5632 5632 5632 5630 5628 5626 5624 5621 5618 5615 5613 5611 5609 5606 5604 5602 5599 5597 5594 5591 5589 5587 5584 5581 5578 5574 5570 5567 5563 5559 5554
5638 5640 5640 5639 5638 5638 5636 5635 5633 5632 5630 5629 5628 5627 5625 5622 5620 5618 5617 5617 5614 5612 5609 5607 5604 5602 5600 5597 5594 5591 5588 5585 5583 5580 5577 5574 5571 5568 5564 5560 5556 5551 5547
5633 5634 5635 5634 5633 5633 5633 5631 5630 5628 5627 5626 5625 5624 5623 5620 5618 5615 5613 5611 5610 5608 5605 5602 5600 5597 5594 5592 5589 5586 5583 5580 5577 5574 5571 5567 5564 5560 5556 5552 5548 5543 5539
5627 5628 5628 5629 5629 5629 5629 5628 5626 5625 5623 5622 5620 5618 5616 5615 5613 5611 5609 5607 5605 5604 5601 5598 5595 5593 5590 5587 5584 5581 5578 5574 5571 5567 5564 5560 5556 5552 5548 5544 5539 5534 5530
5620 5621 5622 5623 5623 5624 5623 5622 5621 5620 5619 5617 5615 5613 5611 5609 5608 5607 5605 5603 5600 5598 5596 5593 5590 5587 5584 5582 5579 5576 5573 5570 5566 5562 5558 5553 5549 5544 5540 5536 5531 5526 5522
5614 5615 5616 5616 5617 5617 5617 5617 5616 5615 5614 5612 5610 5608 5607 5606 5604 5603 5601 5598 5595 5592 5590 5587 5584 5582 5579 5576 5573 5571 5568 5564 5560 5556 5551 5547 5542 5537 5532 5528 5523 5519 5514
5607 5608 5608 5609 5610 5610 5611 5611 5610 5609 5608 5607 5605 5603 5602 5601 5599 5597 5594 5591 5589 5586 5584 5581 5578 5575 5572 5570 5567 5564 5561 5557 5553 5548 5544 5539 5535 5530 5525 5520 5515 5510 5505
5599 5600 5601 5602 5603 5604 5605 5605 5604 5603 5602 5601 5599 5598 5596 5595 5593 5590 5588 5585 5582 5579 5576 5574 5571 5569 5566 5562 5560 5557 5553 5549 5545 5541 5536 5531 5527 5522 5517 5511 5506 5501 5496